SWOT

Last updated on Wed Jul 02 2025 00:02:30 GMT+0000 (Coordinated Universal Time)

1 54754U 22173A 25182.57667234 .00000099 00000+0 68642-4 0 9995 2 54754 77.6096 148.5998 0000147 91.0809 269.0360 14.00169016130081
UTC large
Height (km)
Speed (km/s)
/
Latitude / Longitude
Inclination (degrees)
Orbital Period (minutes)
Azimuth
Elevation
Range (km)
Doppler Factor

Next 0 passes for location: London (51.5072 / 0.1276)

Sorry there are no passes over London.